Find STARLINK-37663

NORAD ID: 70636 Constellation: starlink operational
LEOCIRCULARRETROGRADE

リアルタイム位置

3D地球を読み込み中...

STARLINK-37663について

説明を読み込み中...

次回通過

Passes for default location (London). Set your location on the main map for personalized predictions.

高度履歴

Loading altitude history...

軌道要素

1 70636C 26101Z 26126.33243056 .00328460 00000+0 51271-3 0 1268
2 70636 97.2846 339.8749 0010183 256.9907 109.2360 16.03781055 12
Epoch: May 6, 2026 • Age: 19 hours